[[{"header":{"parameterUnit":"m.s-1","parameterCategory":1,"la1":30.2991,"la2":30.254,"lo1":-89.0895,"lo2":-89.0444,"dy":0.0017,"dx":0.0017,"nx":28,"ny":28,"refTime":"2024-03-02T03:00:00:Z","depth":0,"parameterNumber":2,"parameterNumberName":"U-component_of_WINDS"},"data":[0,0,0,0,0,0,0,0,0,0,0,0,0,0,0,0,0,0,0,0,0,0,0,0,0,0,0,0,0,0,0,0,0,0,0,0,0,0,0,0,0,0,0,0,0,0,0,0,0,0,0,0,0,0,0,0,0,0,-3.7711,-3.7712,0,-3.776,-3.7761,-3.7761,-3.771,-3.7708,-3.7706,-3.7704,-3.7753,-3.7756,-3.7759,0,0,0,0,0,0,0,0,0,0,0,0,0,-3.7573,-3.7576,-3.7711,-3.7712,-3.7713,-3.776,-3.7761,-3.7762,-3.771,-3.7708,-3.7705,-3.7703,-3.7752,-3.7756,-3.7759,0,0,0,0,0,0,0,0,0,0,0,0,0,-3.7629,-3.7577,-3.7711,-3.7693,-3.7691,-3.776,-3.7761,-3.7762,-3.7711,-3.7708,-3.7705,-3.7702,-3.7751,-3.7755,-3.776,-3.7849,0,0,-3.7774,-3.7776,0,0,0,0,0,0,0,0,-3.7626,-3.7634,-3.7695,-3.7694,-3.7693,-3.7726,-3.773,-3.7791,-3.7711,-3.7703,-3.7704,-3.77,-3.7746,-3.7751,-3.7767,-3.7851,-3.7853,-3.7775,-3.7778,-3.778,-3.7781,0,0,0,0,0,0,0,-3.7622,-3.7631,-3.7731,-3.7696,-3.7695,-3.7682,-3.7686,-3.7741,-3.7741,-3.7704,-3.77,-3.7707,-3.7745,-3.7762,-3.7768,-3.7854,-3.7775,-3.7779,-3.7782,-3.7784,-3.8016,-3.8019,0,0,0,0,0,0,-3.762,-3.7628,-3.7729,-3.7732,-3.7651,-3.7687,-3.7692,-3.7718,-3.774,-3.7741,-3.7709,-3.7704,-3.7756,-3.7762,-3.7769,-3.7876,-3.778,-3.7784,-3.7787,-3.8012,-3.8016,-3.802,0,0,0,0,0,0,-3.7617,-3.7629,-3.7727,-3.7679,-3.7691,-3.7692,-3.7722,-3.7721,-3.7738,-3.7744,-3.7744,-3.7727,-3.7754,-3.7763,-3.783,-3.7877,-3.7786,-3.7791,-3.8008,-3.8014,-3.8018,-3.8089,0,0,0,0,0,0,-3.7613,-3.7629,-3.7662,-3.7681,-3.7694,-3.7787,-3.7725,-3.7724,-3.7746,-3.774,-3.7761,-3.7761,-3.7752,-3.7823,-3.7835,-3.7882,-3.7794,-3.8004,-3.8011,-3.8017,-3.8082,-3.8096,-3.8107,0,0,0,0,0,-3.7609,-3.768,-3.7664,-3.7677,-3.7736,-3.779,-3.7797,-3.7786,-3.775,-3.7784,-3.7789,-3.7761,-3.787,-3.7831,-3.7843,-3.7892,-3.8001,-3.8009,-3.8016,-3.8077,-3.8093,-3.8107,0,0,0,0,0,0,-3.7666,-3.7682,-3.7665,-3.7744,-3.7766,-3.7781,-3.7823,-3.7803,-3.7835,-3.7828,-3.7811,-3.7817,-3.7888,-3.7897,-3.7853,-3.798,-3.793,-3.794,-3.7972,-3.7987,-3.7999,-3.7995,-3.7798,0,0,0,0,0,-3.7688,-3.7731,-3.7742,-3.7811,-3.7823,-3.7822,-3.7845,-3.7834,-3.7856,-3.7865,-3.7874,-3.7897,-3.7936,-3.7962,-3.7999,-3.8084,-3.8088,-3.8124,-3.8136,-3.8146,-3.8155,-3.8202,-3.8218,-3.8044,-3.8044,-3.8044,0,0,-3.7734,-3.7748,-3.7776,-3.7823,-3.7839,-3.7884,-3.783,-3.7879,-3.7913,-3.7872,-3.7937,-3.7945,-3.7969,-3.8046,-3.808,-3.8055,-3.8204,-3.8156,-3.8164,-3.8167,-3.8211,-3.8228,-3.8242,-3.805,-3.8049,-3.8048,0,0,-3.784,-3.7855,-3.7914,-3.7932,-3.7957,-3.7956,-3.797,-3.7989,-3.7993,-3.8058,-3.8029,-3.8068,-3.8136,-3.8155,-3.8173,-3.8289,-3.8265,-3.8302,-3.8366,-3.8411,-3.8425,-3.8437,-3.8479,-3.8494,-3.8311,-3.8311,-3.8311,0,-3.7893,-3.796,-3.7947,-3.7999,-3.8021,-3.7989,-3.8049,-3.8066,-3.8102,-3.8118,-3.809,-3.8176,-3.8189,-3.8271,-3.8299,-3.8315,-3.8331,-3.8299,-3.8424,-3.8436,-3.8447,-3.8487,-3.8502,-3.8315,-3.8315,-3.8314,-3.8314,0,-3.8025,-3.8072,-3.8117,-3.8153,-3.818,-3.8236,-3.8232,-3.8261,-3.8249,-3.8251,-3.8318,-3.8334,-3.8373,-3.8392,-3.838,-3.8473,-3.8456,-3.8427,-3.8375,-3.8468,-3.8505,-3.852,-3.8321,-3.832,-3.8318,-3.8317,0,0,-3.8166,-3.8197,-3.8214,-3.823,-3.8257,-3.8293,-3.8348,-3.8388,-3.8413,-3.844,-3.8485,-3.8545,-3.8518,-3.8539,-3.8529,-3.8569,-3.8661,-3.8534,-3.8535,-3.8557,-3.8765,-3.8786,-3.8804,-3.8645,-3.8648,-3.865,-3.8763,0,-3.8273,-3.8369,-3.836,-3.8451,-3.8495,-3.8465,-3.8513,-3.8535,-3.8539,-3.8577,-3.8581,-3.8623,-3.8585,-3.8597,-3.8636,-3.8641,-3.8702,-3.8633,-3.8688,-3.869,-3.8682,-3.8823,-3.8846,-3.8951,-3.8777,-3.8779,-3.8781,0,-3.841,-3.8443,-3.8539,-3.856,-3.8578,-3.8621,-3.8658,-3.8694,-3.8718,-3.8719,-3.8743,-3.8727,-3.8783,-3.8731,-3.8808,-3.8762,-3.8784,-3.879,-3.8794,-3.8798,-3.874,-3.8831,-3.8984,-3.9,-3.8804,-3.8802,-3.88,0,-3.8505,-3.8572,-3.8638,-3.8654,-3.868,-3.8712,-3.8724,-3.8746,-3.8771,-3.8803,-3.8819,-3.8857,-3.8877,-3.8907,-3.8902,-3.8865,-3.8981,-3.8928,-3.8982,-3.8982,-3.9007,-3.9005,-3.9166,-3.9022,-3.9022,-3.9022,-3.9021,0,-3.8625,-3.8684,-3.8681,-3.8722,-3.8788,-3.8778,-3.8844,-3.8853,-3.8873,-3.8915,-3.8892,-3.8932,-3.8922,-3.8962,-3.8958,-3.9023,-3.9032,-3.9034,-3.9032,-3.9036,-3.9035,-3.9049,-3.9042,-3.9026,-3.9025,-3.9024,-3.9023,0,-3.874,-3.8741,-3.8811,-3.8831,-3.8838,-3.8886,-3.8903,-3.8942,-3.8945,-3.8998,-3.901,-3.9015,-3.9061,-3.9058,-3.911,-3.9107,-3.9187,-3.9177,-3.9179,-3.9177,-3.9231,-3.9226,-3.9405,-3.9428,-3.927,-3.9271,-3.9273,0,-3.8816,-3.8862,-3.8888,-3.8915,-3.8929,-3.8973,-3.8999,-3.8991,-3.9019,-3.9051,-3.9086,-3.913,-3.9165,-3.924,-3.9247,-3.9287,-3.9278,-3.9338,-3.9283,-3.9286,-3.9278,-3.9276,-3.928,-3.9348,-3.935,-3.9351,-3.9353,0,-3.8952,-3.895,-3.8988,-3.9028,-3.906,-3.909,-3.9118,-3.9141,-3.9136,-3.9169,-3.9216,-3.9243,-3.9297,-3.9341,-3.938,-3.9392,-3.9372,-3.937,-3.9385,-3.9388,-3.9388,-3.9389,-3.9208,-3.9366,-3.9364,-3.9363,-3.9363,-3.9362,-3.905,-3.9089,-3.9114,-3.9158,-3.9178,-3.9205,-3.9243,-3.9252,-3.9291,-3.9334,-3.9328,-3.9381,-3.9405,-3.9455,-3.9472,-3.9513,-3.9492,-3.9513,-3.9518,-3.9523,-3.9529,-3.9382,-3.952,-3.952,-3.9519,-3.9519,-3.9519,0,-3.9184,-3.9199,-3.9239,-3.928,-3.9315,-3.9294,-3.9324,-3.9354,-3.9402,-3.9427,-3.9462,-3.9517,-3.956,-3.9572,-3.9614,-3.9645,-3.9637,-3.9656,-3.9653,-3.9657,-3.9546,-3.9529,-3.9662,-3.9662,-3.9662,-3.9662,-3.9662,-3.9662,-3.9257,-3.9323,-3.9325,-3.9402,-3.9416,-3.9468,-3.9487,-3.9513,-3.9533,-3.9595,-3.9631,-3.9639,-3.966,-3.9703,-3.9742,-3.9744,-3.9761,-3.9784,-3.9783,-3.9679,-3.9664,-3.9651,-3.9635,-3.9788,-3.9788,-3.989,-3.9891,-3.9892]},{"header":{"parameterUnit":"m.s-1","parameterCategory":1,"la1":30.2991,"la2":30.254,"lo1":-89.0895,"lo2":-89.0444,"dy":0.0017,"dx":0.0017,"nx":28,"ny":28,"refTime":"2024-03-02T03:00:00:Z","depth":0,"parameterNumber":3,"parameterNumberName":"V-component_of_WINDS"},"data":[0,0,0,0,0,0,0,0,0,0,0,0,0,0,0,0,0,0,0,0,0,0,0,0,0,0,0,0,0,0,0,0,0,0,0,0,0,0,0,0,0,0,0,0,0,0,0,0,0,0,0,0,0,0,0,0,0,0,1.0796,1.0797,0,1.0894,1.0895,1.0896,1.0999,1.1,1.1002,1.1003,1.1097,1.1098,1.1099,0,0,0,0,0,0,0,0,0,0,0,0,0,1.0694,1.0696,1.0796,1.0797,1.0799,1.0894,1.0895,1.0896,1.0998,1.1,1.1002,1.1004,1.1097,1.1098,1.1099,0,0,0,0,0,0,0,0,0,0,0,0,0,1.076,1.0696,1.0796,1.0861,1.0868,1.0893,1.0895,1.0897,1.0998,1.1,1.1002,1.1004,1.1096,1.1098,1.11,1.1067,0,0,1.1105,1.1106,0,0,0,0,0,0,0,0,1.0756,1.0763,1.085,1.0857,1.0864,1.0936,1.0894,1.0953,1.0998,1.0948,1.1003,1.1006,1.1041,1.1048,1.1061,1.1071,1.1075,1.1105,1.1106,1.1107,1.1107,0,0,0,0,0,0,0,1.0751,1.076,1.0835,1.0851,1.086,1.0884,1.0896,1.0905,1.0981,1.0953,1.0961,1.0971,1.1046,1.1059,1.1064,1.1077,1.1105,1.1107,1.1108,1.1108,1.1066,1.1064,0,0,0,0,0,0,1.0737,1.0755,1.0832,1.0838,1.0815,1.0884,1.0897,1.0911,1.0982,1.0995,1.0969,1.0976,1.1055,1.1062,1.1068,1.1036,1.1107,1.1108,1.1109,1.1069,1.1066,1.1064,0,0,0,0,0,0,1.0735,1.0743,1.0828,1.0799,1.0811,1.0884,1.0898,1.0912,1.0926,1.0994,1.1007,1.0969,1.1057,1.1065,1.1067,1.104,1.1109,1.1111,1.1071,1.1068,1.1065,1.097,0,0,0,0,0,0,1.0732,1.0742,1.0731,1.0798,1.0812,1.0826,1.0897,1.0912,1.0929,1.0938,1.0998,1.101,1.106,1.1064,1.1069,1.1044,1.1112,1.1074,1.107,1.1066,1.0976,1.0964,1.0954,0,0,0,0,0,1.0728,1.0698,1.073,1.0738,1.0801,1.0824,1.0833,1.0893,1.0926,1.0916,1.096,1.1008,1.1042,1.1063,1.107,1.1045,1.1076,1.1071,1.1066,1.0981,1.0966,1.0954,0,0,0,0,0,0,1.0624,1.0708,1.0744,1.0736,1.0773,1.0842,1.083,1.0875,1.0901,1.0908,1.098,1.0992,1.0986,1.1015,1.1037,1.1018,1.1066,1.1062,1.0999,1.0986,1.0975,1.0968,1.1114,0,0,0,0,0,1.0601,1.0615,1.0687,1.0673,1.069,1.0756,1.0769,1.0812,1.0852,1.0867,1.0912,1.0947,1.0967,1.0978,1.0999,1.098,1.0995,1.0966,1.0955,1.0946,1.0942,1.0936,1.0924,1.1048,1.1048,1.1048,0,0,1.0552,1.06,1.0604,1.0653,1.0687,1.0699,1.0769,1.0778,1.0787,1.0868,1.0874,1.0907,1.0952,1.0944,1.0942,1.0968,1.0911,1.094,1.0932,1.0933,1.093,1.0918,1.0908,1.1044,1.1045,1.1046,0,0,1.047,1.0507,1.0501,1.0533,1.0584,1.0629,1.0627,1.069,1.0716,1.0723,1.0785,1.0796,1.0827,1.0857,1.0876,1.0807,1.0852,1.0812,1.0754,1.0747,1.0738,1.0729,1.0706,1.0696,1.0807,1.0807,1.0807,0,1.0402,1.0425,1.0491,1.0498,1.0518,1.0594,1.0588,1.0615,1.0669,1.0681,1.071,1.0752,1.0787,1.0788,1.0771,1.0784,1.0784,1.0805,1.0734,1.0726,1.072,1.0698,1.0689,1.0802,1.0802,1.0803,1.0803,0,1.034,1.0354,1.0342,1.0396,1.0415,1.0414,1.048,1.049,1.0532,1.0573,1.058,1.0625,1.0658,1.0661,1.07,1.0667,1.0682,1.0721,1.0771,1.0702,1.0683,1.0675,1.0794,1.0796,1.0798,1.0799,0,0,1.0195,1.0286,1.0281,1.0307,1.0369,1.0381,1.0384,1.0418,1.0427,1.0461,1.0466,1.0491,1.0529,1.055,1.0594,1.0587,1.0531,1.0628,1.063,1.0609,1.05,1.0471,1.046,1.0562,1.056,1.0559,1.0496,0,1.0124,1.0137,1.0198,1.0192,1.0207,1.028,1.0283,1.032,1.0359,1.0376,1.0419,1.0436,1.0484,1.0497,1.0495,1.0539,1.051,1.0544,1.0566,1.0566,1.0554,1.045,1.0419,1.0357,1.0489,1.0488,1.0487,0,1.0044,1.0076,1.0073,1.0137,1.0145,1.0147,1.0184,1.0199,1.0244,1.0273,1.0298,1.0347,1.0354,1.0401,1.0411,1.0433,1.0445,1.0468,1.0467,1.0472,1.0523,1.0453,1.0339,1.033,1.0476,1.0477,1.0477,0,0.994,0.9983,0.9987,1.0007,1.0081,1.008,1.0111,1.0158,1.0175,1.0207,1.0219,1.0249,1.0266,1.0289,1.0345,1.0374,1.0349,1.04,1.0373,1.0372,1.0365,1.0365,1.0253,1.0371,1.0372,1.0372,1.0372,0,0.9856,0.9851,0.9942,0.9944,0.9941,1.001,1.0005,1.0042,1.0083,1.0094,1.0158,1.0166,1.024,1.0256,1.0299,1.0302,1.0309,1.0332,1.0344,1.0327,1.0324,1.0337,1.0343,1.0369,1.037,1.037,1.0371,0,0.974,0.98,0.981,0.988,0.9898,0.9892,0.9952,0.9957,1.0,1.0013,1.0019,1.0087,1.0109,1.0168,1.0205,1.0235,1.0225,1.0247,1.0211,1.0219,1.0189,1.0191,1.0081,1.0071,1.0195,1.0193,1.0192,0,0.9682,0.9681,0.9752,0.9765,0.9793,0.9812,0.9831,0.9899,0.9915,0.9967,0.9965,0.9994,1.002,1.0052,1.0104,1.0132,1.0156,1.0115,1.016,1.0144,1.0156,1.0156,1.0157,1.0105,1.0103,1.0102,1.0101,0,0.9575,0.9606,0.9631,0.9667,0.9689,0.972,0.9754,0.9761,0.9837,0.9852,0.9877,0.9898,0.9937,0.9964,1.0001,1.0031,1.0078,1.0087,1.0082,1.0065,1.0045,1.0057,1.0185,1.0089,1.009,1.0091,1.0092,1.0092,0.9488,0.9491,0.9542,0.9568,0.9602,0.9633,0.9642,0.9687,0.971,0.9749,0.9787,0.9808,0.9854,0.9909,0.9936,0.9953,0.9977,0.997,0.9969,0.9966,0.9959,1.0042,0.996,0.996,0.9961,0.9961,0.9961,0,0.9385,0.9422,0.9445,0.9493,0.9514,0.9559,0.96,0.9614,0.9633,0.9672,0.9697,0.9726,0.9753,0.9808,0.9839,0.9842,0.9865,0.9849,0.9849,0.9856,0.9935,0.9936,0.983,0.983,0.983,0.983,0.983,0.983,0.9333,0.9341,0.9378,0.9403,0.944,0.9463,0.9483,0.9512,0.9544,0.9574,0.9598,0.9634,0.9679,0.9715,0.9742,0.9757,0.9766,0.9742,0.9764,0.9837,0.985,0.9862,0.9864,0.9744,0.9743,0.9684,0.9684,0.9683]}]]